Tracking 19170 objects as of 22-May-2018
HD Live streaming from Space Station
objects crossing your sky now

TANSUO 2

Track TANSUO 2 now!
10-day predictions
TANSUO 2 is classified as:


NORAD ID: 28479
Int'l Code: 2004-046A
Perigee: 689.8 km
Apogee: 705.5 km
Inclination: 98.2 °
Period: 98.6 minutes
Semi major axis: 7068 km
RCS: 1.44 m2 (large)
Launch date: November 18, 2004
Source: People's Republic of China (PRC)
Launch site: Xichang Space Center, China (XSC)
aabbcc
Your satellite tracking list
Your tracking list is empty




NASA's NSSDC Master Catalog

Two Line Element Set (TLE):
1 28479U 04046A   18142.18095884  .00000092  00000-0  28459-4 0  9996
2 28479  98.1948 161.3275 0011125 144.0607 216.1344 14.60815515719013
Source of the keplerian elements: AFSPC